Imperial, CA

1:55 PM PDT on September 29, 2016 (GMT -0700)
Imperial County

Weather History for KIPL - September, 2013

Change the Weather History Date:

Saturday, September 21, 2013

  Actual Average Record
Temperature  
Mean Temperature 86 °F -  
Max Temperature 99 °F 96 °F 111 °F (1949)
Min Temperature 73 °F 69 °F 58 °F (1986)
Cooling Degree Days 21    
Growing Degree Days 36 (Base 50)    
Moisture  
Dew Point 53 °F    
Average Humidity 39    
Maximum Humidity 71    
Minimum Humidity 10    
Precipitation  
Precipitation 0.00 in - - ()
Sea Level Pressure  
Sea Level Pressure 29.67 in    
Wind  
Wind Speed 7 mph (WSW)    
Max Wind Speed 24 mph    
Max Gust Speed 32 mph    
Visibility 10 miles    
Events      
Averages and records for this station are not official NWS values.
T = Trace of Precipitation, MM = Missing Value Source: NWS Daily Summary

Daily Weather History Graph

Daily Weather History Graph

Search for Another Location

Airport or City:

Trip Planner

Search our weather history database for the weather conditions in past years. The results will help you decide how hot, cold, wet, or windy it might be!

Date:

Astronomy

Sep. 21, 2013 Rise Set
Actual Time 6:30 AM PDT 6:39 PM PDT
Civil Twilight 6:05 AM PDT 7:04 PM PDT
Nautical Twilight 5:36 AM PDT 7:33 PM PDT
Astronomical Twilight 5:07 AM PDT 8:02 PM PDT
Moon 8:04 PM PDT (9/21) 8:43 AM PDT (9/21)
Length of Visible Light 12h 59m
Length of Day
12h 09m
Waning Gibbous, 94% of the Moon is Illuminated
Sep 21
Waning Gibbous
Sep 26
Last Quarter
Oct 4
New
Oct 11
First Quarter
Oct 18
Full

Hourly Weather History & Observations

Time (PDT) Temp. Heat Index Dew Point Humidity Pressure Visibility Wind Dir Wind Speed Gust Speed Precip Events Conditions
12:53 AM 82.9 °F 85.0 °F 66.0 °F 56% 29.70 in 10.0 mi East 5.8 mph - N/A   Clear
1:53 AM 82.0 °F 84.1 °F 66.0 °F 58% 29.70 in 10.0 mi NE 3.5 mph - N/A   Clear
2:53 AM 81.0 °F 83.3 °F 66.9 °F 62% 29.70 in 10.0 mi East 3.5 mph - N/A   Clear
3:53 AM 81.0 °F 82.7 °F 64.9 °F 58% 29.69 in 10.0 mi NE 3.5 mph - N/A   Clear
4:53 AM 79.0 °F - 63.0 °F 58% 29.70 in 10.0 mi East 3.5 mph - N/A   Clear
5:53 AM 77.0 °F - 63.0 °F 62% 29.70 in 10.0 mi Calm Calm - N/A   Clear
6:53 AM 73.0 °F - 63.0 °F 71% 29.72 in 10.0 mi WSW 3.5 mph - N/A   Clear
7:53 AM 77.0 °F - 62.1 °F 60% 29.73 in 10.0 mi SSW 3.5 mph - N/A   Clear
8:53 AM 79.0 °F - 55.0 °F 44% 29.74 in 10.0 mi West 4.6 mph - N/A   Clear
9:53 AM 84.0 °F 82.9 °F 55.0 °F 37% 29.75 in 10.0 mi Variable 3.5 mph - N/A   Clear
10:53 AM 90.0 °F 87.9 °F 55.0 °F 30% 29.73 in 10.0 mi Calm Calm - N/A   Clear
11:53 AM 93.0 °F 90.6 °F 53.1 °F 26% 29.72 in 10.0 mi South 3.5 mph - N/A   Clear
12:53 PM 93.9 °F - 50.0 °F 22% 29.68 in 10.0 mi Calm Calm - N/A   Clear
1:53 PM 97.0 °F - 45.0 °F 17% 29.65 in 10.0 mi Variable 3.5 mph - N/A   Clear
2:53 PM 98.1 °F - 43.0 °F 15% 29.63 in 10.0 mi Variable 5.8 mph - N/A   Clear
3:53 PM 99.0 °F - 32.0 °F 10% 29.60 in 10.0 mi WSW 13.8 mph 20.7 mph N/A   Clear
4:53 PM 97.0 °F - 37.9 °F 13% 29.59 in 10.0 mi WSW 19.6 mph 26.5 mph N/A   Clear
5:53 PM 91.9 °F - 46.9 °F 21% 29.60 in 10.0 mi WSW 18.4 mph - N/A   Clear
6:53 PM 86.0 °F - 46.9 °F 26% 29.60 in 10.0 mi WSW 24.2 mph 32.2 mph N/A   Clear
7:53 PM 82.0 °F - 48.0 °F 30% 29.61 in 10.0 mi West 16.1 mph 26.5 mph N/A   Clear
8:53 PM 80.1 °F - 46.9 °F 31% 29.64 in 10.0 mi West 17.3 mph - N/A   Clear
9:53 PM 77.0 °F - 48.9 °F 37% 29.64 in 10.0 mi West 17.3 mph - N/A   Clear
10:53 PM 75.0 °F - 52.0 °F 44% 29.66 in 10.0 mi West 13.8 mph 23.0 mph N/A   Clear
11:53 PM 73.9 °F - 51.1 °F 45% 29.66 in 10.0 mi West 15.0 mph - N/A   Clear